Location: Eenumerhoogte
(53.3420°N, 6.7843°E)
Time: 11:20:56
(UTC+00:00)

NOSS 0 Rocket - Pass Details

Date: 15 May 2026
Orbit: 936 x 952 km, 70.0° (Epoch: 6 June)

Event Time Altitude Azimuth Distance (km) Brightness Sun altitude
Rises 23:19:38 0° 323° (NW) 3,617 7.9 -17.6°
Reaches altitude 10° 23:22:17 10° 317° (NW) 2,666 7.0 -17.6°
Maximum altitude 23:28:02 42° 249° (WSW) 1,310 4.5 -17.6°
Enters shadow 23:30:48 27° 198° (SSW) 1,721 4.7 -17.6°
